Lapse_Rate
9.9 7.3 5.1 5.6 5.8 6.1 6.1 6.1 6.0 5.9 5.8 5.6 5.7 5.6 5.5 5.6 5.5 5.6 5.7 6.2 6.4 6.6 6.6 6.4 6.2 5.9 5.7 5.5 5.3 5.2 5.2 5.2 5.6 6.0 6.5 6.1 5.6 5.5 5.8 6.2 7.8 8.7 6.0
9.9 9.0 4.9 5.6 6.2 6.3 6.4 6.4 6.0 5.8 5.9 5.8 5.9 5.9 6.0 6.0 6.0 6.0 6.3 6.5 6.7 6.9 6.7 6.4 6.1 5.8 5.4 5.1 4.8 4.6 4.7 4.9 5.4 5.9 6.5 6.9 5.8 5.9 5.7 5.5 5.7 6.9 6.3
10.0 9.0 8.4 5.9 6.4 6.7 6.8 6.6 6.1 6.1 6.2 6.2 6.1 6.1 6.2 6.3 6.4 6.4 6.4 6.5 6.7 6.6 6.3 6.0 5.8 5.4 5.0 4.7 4.5 4.7 4.7 4.9 5.5 5.8 6.4 8.0 7.5 6.4 6.3 6.0 6.0 6.0 5.9
9.9 9.7 9.1 6.4 6.3 6.4 6.5 6.2 6.1 6.2 6.4 6.4 6.2 6.2 6.3 6.3 6.4 6.5 6.5 6.6 6.3 6.2 6.0 5.8 5.4 4.9 4.4 4.3 4.5 4.6 5.0 5.5 6.7 7.6 8.7 9.2 9.3 6.7 6.6 6.5 6.8 5.9 6.1
9.6 9.2 7.0 6.4 6.3 6.4 6.5 6.2 6.3 6.3 6.3 6.5 6.3 6.5 6.4 6.3 6.4 6.3 6.3 6.3 6.3 6.4 6.3 6.0 5.5 4.9 4.6 4.6 4.6 5.1 5.8 6.5 7.6 8.3 8.3 8.0 8.4 6.6 6.7 6.4 6.9 6.5 5.8
8.6 9.1 6.1 5.9 6.2 6.2 6.4 6.4 5.9 5.8 6.0 6.3 6.6 6.8 6.5 6.5 6.4 6.3 6.1 6.2 6.3 6.2 6.1 6.0 5.6 5.3 5.0 4.8 5.2 6.0 6.6 7.2 9.2 9.6 9.5 9.1 8.0 6.9 6.4 5.9 5.7 6.0 6.1
9.9 9.3 7.2 5.6 6.2 6.5 6.5 6.1 5.6 5.7 5.7 6.0 6.3 6.6 6.8 6.7 6.3 6.1 5.8 5.7 5.7 5.8 5.7 5.6 5.4 5.1 4.9 5.0 5.8 6.6 7.0 7.6 9.6 9.6 9.5 9.4 9.2 6.7 6.7 6.6 6.3 6.2 6.0
9.9 9.2 8.9 5.6 5.7 5.9 6.1 5.9 5.5 5.5 5.6 5.8 6.1 6.2 6.3 6.3 6.0 5.8 5.5 5.3 5.2 5.2 5.0 4.9 4.8 4.7 4.5 4.8 5.6 6.5 7.3 7.8 9.7 9.7 9.6 9.5 8.7 7.6 6.5 6.2 6.5 6.7 6.6
9.7 9.7 9.5 9.1 5.9 6.1 5.7 5.8 5.9 5.7 5.6 5.8 5.8 5.8 5.8 5.8 5.7 5.7 5.3 5.2 5.1 5.1 4.9 4.7 4.5 4.5 4.5 5.2 6.0 6.6 7.6 8.3 9.6 9.6 9.6 9.5 9.0 9.0 7.4 6.7 6.4 6.2 6.4
9.9 9.7 9.7 9.6 9.6 8.5 8.1 5.8 5.9 5.6 5.6 5.6 6.0 6.2 6.6 6.5 6.5 6.4 6.5 5.0 4.8 4.7 4.6 4.8 4.9 4.6 6.0 6.4 7.1 7.8 7.9 8.0 9.6 9.6 9.5 8.2 9.2 9.4 9.4 8.3 7.1 6.8 6.5
9.9 10.0 9.8 9.7 9.7 9.5 8.7 6.9 6.1 5.8 6.0 7.0 7.5 7.5 7.3 9.7 9.3 7.2 4.8 5.0 5.0 4.9 5.3 5.8 6.6 6.5 6.3 7.5 8.3 8.6 9.2 9.7 9.7 9.6 8.5 6.7 8.3 9.4 9.2 8.1 8.0 7.9 7.4
9.5 9.8 9.9 9.7 9.7 9.6 9.6 9.3 9.5 8.6 9.6 9.7 9.7 9.7 9.5 8.9 8.9 7.9 6.7 6.5 5.8 6.6 7.1 7.7 8.0 8.9 8.3 9.7 9.6 9.3 9.7 9.7 9.5 9.6 5.9 5.8 7.4 9.3 9.1 8.4 8.1 7.9 7.7
9.6 9.9 10.1 9.7 9.6 9.7 9.7 9.7 9.7 9.6 9.7 9.6 9.7 9.6 9.6 9.6 9.4 9.7 9.4 9.6 9.6 8.6 9.7 9.5 9.6 9.4 8.4 9.3 9.6 9.5 9.7 9.7 9.7 9.1 4.7 5.1 5.9 7.2 8.1 8.3 8.2 7.9 7.6
9.6 9.7 10.0 9.7 9.7 9.7 9.7 9.7 9.7 9.7 9.6 9.7 9.2 9.0 9.5 9.7 9.7 9.7 9.8 9.7 9.7 9.6 9.7 9.7 9.7 9.4 9.4 9.3 9.6 9.6 9.6 9.7 9.6 9.4 5.5 5.0 5.4 5.9 6.2 6.5 7.0 7.9 8.3
9.5 9.7 9.9 9.7 9.7 9.7 9.7 9.7 9.7 9.7 9.7 9.6 9.7 9.6 9.7 9.7 9.6 9.7 9.7 9.7 9.7 9.7 9.7 9.7 9.7 9.6 9.8 9.6 9.5 9.7 9.7 9.7 9.6 9.6 7.8 5.7 5.8 6.0 6.1 6.3 6.4 6.6 7.1
9.6 9.6 9.9 9.9 9.7 9.6 9.7 9.7 9.7 9.6 9.3 9.7 9.7 9.5 9.6 9.7 9.7 9.7 9.7 9.8 9.7 9.7 9.6 9.6 9.6 9.7 9.8 9.7 9.7 9.7 9.6 9.7 9.6 9.5 9.7 7.3 6.2 6.5 6.9 6.7 6.6 6.5 6.8
9.7 9.7 9.7 9.9 9.6 9.7 9.7 9.7 9.7 9.7 9.7 9.7 9.4 8.9 8.7 9.5 9.5 9.6 9.7 9.7 9.7 9.6 9.7 9.7 9.7 9.8 9.8 9.8 9.8 9.8 9.7 9.8 9.7 9.7 9.7 9.7 9.3 6.9 7.1 7.3 7.5 6.9 6.8
9.8 9.6 9.7 9.9 9.5 9.6 9.7 9.7 9.7 9.7 9.7 9.7 9.6 9.2 8.5 8.8 9.4 9.6 9.7 9.6 9.6 9.7 9.7 9.8 9.8 10.0 9.9 10.0 9.8 10.0 9.8 9.8 9.7 9.7 9.7 9.7 9.6 9.7 9.7 8.5 9.0 8.4 8.5
9.6 9.6 9.6 9.8 9.7 9.7 9.7 9.7 9.7 9.7 9.7 9.7 9.6 9.0 7.6 8.2 9.2 9.7 9.6 9.3 9.7 9.7 9.7 9.7 9.9 9.8 9.8 9.8 9.8 10.0 9.8 9.8 9.7 9.8 9.8 9.7 9.7 9.6 9.7 9.6 9.3 8.0 8.4
9.6 9.6 9.7 9.8 9.7 9.7 9.6 9.8 9.7 9.7 9.7 9.7 9.7 9.5 7.6 7.9 8.4 9.7 9.1 9.2 9.7 9.7 9.8 9.6 9.8 9.9 9.9 9.8 9.9 9.8 9.9 9.8 9.8 9.8 9.8 9.8 9.7 9.7 9.7 9.7 9.7 9.7 9.3
9.5 9.6 9.5 9.5 9.7 9.8 9.8 9.7 9.7 9.7 9.8 9.9 9.7 8.3 8.1 8.2 7.8 8.4 9.6 9.7 9.7 9.7 9.1 9.4 9.7 9.6 9.7 9.8 9.5 9.5 9.6 9.4 9.7 9.9 9.8 9.8 9.7 9.8 9.7 9.7 9.7 9.7 9.6
9.3 9.5 9.6 9.7 9.7 9.8 10.0 9.9 9.9 9.8 9.9 9.8 9.7 9.0 8.5 7.5 7.5 8.7 9.6 9.7 8.8 9.8 9.0 8.9 9.0 9.5 9.7 9.8 9.3 9.2 8.6 9.0 9.5 9.6 9.9 9.9 9.6 9.7 9.7 9.7 9.7 9.7 9.7
9.3 9.3 9.4 9.6 9.6 9.7 9.8 10.0 9.9 9.8 9.8 9.8 9.8 9.4 7.8 7.3 8.1 8.4 8.0 7.8 7.9 9.3 9.8 9.5 8.6 9.5 9.2 9.7 9.6 9.2 8.4 8.1 8.9 9.6 9.6 9.9 9.9 9.9 9.8 9.7 9.7 9.7 9.7
9.2 9.4 9.6 9.6 9.6 9.8 9.9 9.7 9.4 9.4 9.3 9.7 9.7 9.8 7.7 7.8 7.9 7.4 7.2 7.4 7.8 9.4 8.2 9.1 8.6 8.8 9.5 9.2 9.6 9.9 9.6 9.4 8.5 8.3 9.5 9.7 9.9 9.9 9.8 9.8 9.8 9.7 9.5
9.3 9.3 9.4 9.5 9.5 9.7 9.7 9.6 9.5 9.3 9.6 9.8 9.8 9.2 9.1 7.9 7.5 7.4 7.3 7.7 8.3 9.0 6.4 6.1 6.9 7.3 9.7 9.4 9.4 9.4 9.4 9.5 9.4 8.9 8.4 8.9 9.7 9.9 9.9 9.8 9.8 9.8 9.7
9.2 9.3 9.3 9.4 9.4 9.6 9.6 9.6 9.5 9.3 9.4 9.4 9.5 9.3 9.7 9.5 8.0 7.6 8.5 8.5 7.1 5.9 5.5 6.7 7.1 8.0 7.8 9.5 9.8 9.7 9.5 9.1 9.1 9.0 8.8 8.8 8.9 9.5 10.0 9.9 9.8 9.8 9.7
Wind_Speed
11 14 11 9 10 13 15 14 13 13 14 15 14 14 14 14 13 13 13 12 11 12 13 14 14 15 15 15 13 11 10 8 6 7 11 15 16 15 16 19 22 17 14
13 16 10 8 11 14 15 14 14 14 14 15 14 14 14 13 14 13 11 11 12 13 13 14 14 15 17 17 16 14 10 6 1 3 10 14 18 16 15 15 16 14 14
12 14 14 6 9 14 15 15 14 13 13 14 14 14 14 14 16 17 16 15 15 16 16 16 16 17 18 17 16 15 11 5 3 7 7 4 19 18 15 15 15 15 15
12 14 17 10 16 17 16 15 13 13 14 15 15 15 15 15 17 18 18 21 20 20 19 18 18 18 18 17 16 15 13 10 7 19 15 20 18 18 15 16 14 16 15
14 18 12 14 18 17 16 14 14 15 15 15 15 15 15 15 16 18 19 21 21 21 21 22 21 21 19 18 17 18 19 19 11 21 27 25 21 19 17 19 18 16 15
17 16 16 16 17 17 16 14 16 16 16 15 16 17 17 17 18 19 19 20 20 21 21 21 21 21 21 20 20 22 23 27 11 19 23 24 24 24 23 21 19 21 10
15 16 16 17 17 17 15 14 16 15 15 16 18 18 19 19 19 19 20 19 20 20 20 21 21 21 21 21 22 22 22 20 21 22 23 23 24 25 26 27 28 27 23
10 16 14 16 17 17 14 13 14 15 16 18 18 18 18 18 19 20 20 20 19 19 19 19 19 20 19 19 20 20 22 22 20 21 22 22 22 25 26 26 27 27 27
11 12 13 14 15 15 13 13 13 15 17 17 17 18 18 18 18 19 19 19 18 17 17 17 16 16 16 16 16 16 17 21 20 20 21 20 20 22 24 25 24 24 25
10 10 10 13 15 13 12 12 12 14 15 14 13 15 21 18 15 13 17 17 17 17 16 14 11 11 15 17 15 16 14 4 18 18 19 21 19 20 21 21 21 22 22
9 9 12 12 12 12 12 11 12 12 13 15 10 4 11 13 15 16 14 15 14 15 15 14 11 3 5 14 12 12 13 15 17 17 17 19 19 20 21 22 21 20 20
11 11 12 13 12 10 12 11 11 13 10 9 9 8 12 13 13 15 13 14 10 13 14 13 11 20 7 14 13 9 14 12 15 15 16 20 18 19 20 20 19 19 19
12 10 12 13 12 11 12 12 11 10 9 9 8 8 8 8 7 7 8 8 9 5 11 12 14 15 15 15 15 15 14 12 11 14 16 19 19 19 19 20 20 19 18
13 12 11 13 11 10 11 9 10 10 9 9 9 8 8 8 7 8 8 8 9 11 11 12 12 12 13 13 12 11 13 13 13 11 13 16 18 19 20 19 19 20 20
13 13 12 13 11 10 8 10 9 10 9 10 9 7 9 10 8 9 8 10 10 11 11 11 9 10 9 10 11 11 10 11 11 11 10 12 13 15 18 19 19 19 19
14 13 12 11 11 10 10 9 9 10 10 10 10 9 8 9 8 8 8 10 11 11 11 10 10 9 7 8 8 9 8 10 10 10 11 9 10 12 15 17 19 19 19
13 13 13 12 12 10 11 11 9 10 10 11 11 9 9 8 8 8 8 9 8 8 7 8 7 7 8 8 7 6 7 6 9 9 10 13 12 10 15 17 19 17 18
15 15 13 12 13 11 11 10 10 10 11 11 12 10 8 8 7 7 7 7 7 7 8 7 9 7 7 8 7 5 8 8 7 7 10 13 13 16 13 19 18 11 15
15 15 14 13 12 11 12 10 10 9 10 10 10 10 8 7 6 6 7 6 4 6 8 9 7 7 7 9 11 7 4 5 6 8 9 12 8 14 14 17 17 3 10
16 15 14 12 13 12 12 10 10 10 10 10 10 10 9 8 6 5 6 4 5 8 7 8 6 7 5 8 11 10 8 3 4 6 11 11 12 13 17 16 17 17 9
17 16 16 15 15 11 9 9 8 7 7 8 10 10 9 7 6 4 5 4 6 7 6 9 7 9 7 8 9 10 10 4 5 5 15 8 11 12 15 18 16 16 18
18 17 16 16 16 12 9 8 8 8 8 9 11 10 9 7 5 4 3 5 6 5 6 7 8 6 8 7 8 8 8 7 9 12 6 7 12 15 17 16 14 16 15
19 18 17 17 17 14 12 9 9 9 9 6 7 7 9 8 5 5 4 5 4 5 5 6 8 9 8 8 10 7 6 7 11 7 8 9 10 12 14 16 15 17 13
20 19 18 18 18 14 14 12 13 10 9 8 8 8 10 8 7 6 5 5 5 6 6 6 9 8 7 8 8 7 7 9 9 8 8 10 10 10 12 14 15 14 11
20 19 17 18 18 17 15 13 11 11 8 8 8 10 8 9 7 6 5 4 4 7 8 9 8 8 7 7 7 8 8 7 8 8 10 10 9 9 11 12 12 13 11
18 18 16 19 18 17 16 14 14 12 10 9 10 9 8 6 8 6 6 5 8 7 7 6 8 9 7 7 7 7 6 6 7 8 8 10 11 10 8 9 8 11 12
Wind_Direction
92 102 79 75 86 92 82 73 64 58 58 55 53 53 49 47 47 43 40 40 44 45 44 43 42 40 40 37 38 43 50 56 63 77 78 80 68 53 41 28 22 44 38
100 100 86 79 86 97 86 75 64 61 60 58 56 54 52 51 51 47 45 47 49 50 48 45 46 49 48 48 45 41 41 44 2 120 118 86 72 52 46 42 34 50 38
100 119 102 74 111 92 84 73 70 63 65 66 65 65 62 57 56 55 56 59 60 59 58 59 57 53 51 49 46 46 48 48 308 280 211 158 69 47 38 32 38 31 28
107 113 90 74 96 89 80 74 70 72 74 75 74 72 69 65 61 60 60 61 62 62 62 62 61 58 55 49 42 29 14 352 343 34 3 39 43 40 32 19 38 29 16
91 78 75 92 87 86 84 84 83 80 79 77 78 78 75 70 65 62 61 65 68 68 67 66 64 59 54 47 34 22 13 359 333 52 47 30 31 31 31 28 22 19 16
107 113 89 94 95 97 93 94 92 85 80 73 76 76 73 70 65 63 64 65 68 67 66 64 61 56 49 40 30 25 17 6 90 80 60 41 30 35 37 33 28 18 8
121 117 107 101 99 96 100 103 97 89 84 79 75 74 75 73 69 67 66 67 67 66 65 63 61 57 50 42 37 30 21 8 37 42 62 44 37 34 31 33 32 30 30
114 122 124 101 96 97 103 100 90 84 83 82 81 80 80 75 69 65 63 64 64 63 62 60 58 55 49 39 34 27 16 8 52 55 47 52 39 40 39 35 34 30 31
126 118 139 124 109 100 95 89 80 83 88 89 88 90 87 80 75 70 63 61 61 61 59 56 57 59 54 42 31 13 3 10 69 56 50 43 38 41 38 37 36 33 31
122 132 118 130 126 126 113 88 92 99 97 98 104 114 111 98 92 79 73 61 62 60 57 54 54 59 74 54 25 2 350 316 51 56 53 27 32 37 36 34 34 33 32
129 131 119 124 126 126 123 115 109 118 123 122 115 146 181 88 93 80 71 69 71 73 66 54 34 43 107 89 51 2 18 44 53 51 45 16 26 30 33 34 33 32 32
136 131 128 137 131 145 128 148 129 157 127 95 80 74 74 66 78 91 92 86 80 93 84 71 39 30 65 40 33 31 42 32 69 53 41 25 28 29 32 30 31 30 28
138 135 141 129 146 152 129 149 145 130 125 96 79 79 89 114 126 93 110 89 82 102 61 62 48 47 45 33 38 30 20 26 46 68 40 35 31 27 26 25 21 26 27
148 149 139 143 147 139 144 151 134 123 128 109 90 110 118 105 81 73 82 100 79 64 53 48 59 58 46 41 38 37 31 24 15 85 66 53 42 34 27 22 15 12 14
143 146 145 140 148 151 173 133 115 130 114 113 103 82 92 96 91 85 78 71 63 58 53 41 53 37 42 52 30 26 28 34 20 10 101 92 72 51 34 22 17 14 9
147 152 142 145 147 159 122 132 144 107 132 116 108 98 96 103 105 103 89 74 62 50 49 45 28 18 27 14 39 16 28 14 26 15 360 96 88 72 55 30 15 9 6
151 156 154 149 147 155 143 146 146 148 130 117 111 106 106 107 84 89 75 66 64 63 45 33 16 23 6 355 6 8 349 23 12 9 9 357 7 82 65 38 18 6 6
154 160 164 154 154 155 152 162 144 149 135 129 125 120 109 108 104 99 87 66 52 48 37 35 13 357 6 352 339 354 344 342 2 6 15 354 9 351 356 32 7 357 11
149 160 168 160 163 165 158 163 150 141 134 134 130 127 119 111 107 104 91 79 51 57 38 15 21 7 360 357 328 342 334 341 338 351 338 343 357 357 345 356 359 51 29
154 159 165 168 166 170 165 161 152 169 140 141 141 126 140 123 118 108 90 72 41 37 45 17 4 3 4 357 321 342 312 227 321 321 327 348 337 355 349 347 342 345 359
160 161 166 170 166 171 174 178 168 160 151 152 135 146 140 131 126 120 118 100 72 48 37 19 358 356 357 18 342 337 323 201 166 343 331 333 351 342 345 344 351 345 341
169 169 169 170 171 181 180 178 174 160 165 156 144 149 139 143 142 145 98 73 23 79 42 25 10 357 349 16 353 337 341 327 1 341 6 340 4 341 343 339 340 344 339
174 174 176 172 175 186 177 170 163 157 152 154 151 156 155 156 154 119 95 82 75 36 41 22 14 7 348 356 6 9 342 340 333 342 332 350 340 345 335 341 339 338 357
177 177 177 174 177 182 182 167 175 173 174 178 170 155 159 160 150 133 116 100 58 57 34 25 31 360 9 352 353 6 345 330 329 323 333 332 346 335 347 346 339 319 35
174 178 180 175 178 179 183 177 179 185 188 162 165 148 158 159 153 143 133 104 71 55 57 45 30 18 9 351 354 346 343 335 333 328 320 335 327 342 341 343 340 332 347
172 175 180 180 180 179 183 187 188 198 179 166 167 173 167 164 160 151 137 103 76 80 65 46 27 33 17 5 354 347 347 340 341 331 329 326 334 333 336 336 336 338 342